Location: Cucq
(50.4773°N, 1.6202°E)
Time: 00:09:41
(UTC+00:00)

Cosmos 2237 Rocket - Pass Details

Date: 07 August 2020
Orbit: 836 x 848 km, 71.0° (Epoch: 23 September)

Event Time Altitude Azimuth Distance (km) Brightness Sun altitude
Rises 00:47:53 0° 331° (NNW) 3,414 6.1 -22.3°
Reaches altitude 10° 00:50:22 10° 333° (NNW) 2,473 5.3 -22.3°
Maximum altitude 00:56:03 75° 59° (ENE) 875 2.3 -22.0°
Enters shadow 00:59:07 28° 140° (SE) 1,528 3.2 -21.9°
